TimeCST,TemperatureF,Dew PointF,Humidity,Sea Level PressureIn,VisibilityMPH,Wind Direction,Wind SpeedMPH,Gust SpeedMPH,PrecipitationIn,Events,Conditions,WindDirDegrees,DateUTC
12:51 AM,41.0,32.0,70,30.16,10.0,NNE,20.7,-,N/A,,Overcast,20,2014-02-26 06:51:00
1:51 AM,39.9,28.9,65,30.18,10.0,NE,21.9,-,N/A,,Overcast,40,2014-02-26 07:51:00
2:51 AM,37.9,28.9,70,30.21,10.0,NNE,23.0,29.9,N/A,,Overcast,20,2014-02-26 08:51:00
3:24 AM,37.0,30.9,79,30.20,7.0,NNE,23.0,32.2,N/A,,Overcast,20,2014-02-26 09:24:00
3:51 AM,37.0,28.9,73,30.23,9.0,NNE,23.0,31.1,N/A,,Overcast,30,2014-02-26 09:51:00
4:51 AM,37.0,25.0,62,30.24,10.0,NNE,17.3,29.9,N/A,,Overcast,20,2014-02-26 10:51:00
5:51 AM,34.0,24.1,67,30.25,10.0,NNE,23.0,33.4,N/A,,Overcast,20,2014-02-26 11:51:00
6:23 AM,33.1,25.0,72,30.24,10.0,NNE,23.0,32.2,N/A,,Overcast,30,2014-02-26 12:23:00
6:51 AM,32.0,23.0,69,30.29,10.0,NNE,20.7,-,N/A,,Overcast,20,2014-02-26 12:51:00
7:51 AM,32.0,19.9,61,30.32,10.0,NNE,17.3,-,N/A,,Overcast,20,2014-02-26 13:51:00
8:51 AM,30.9,19.0,61,30.35,10.0,NNE,17.3,-,N/A,,Overcast,20,2014-02-26 14:51:00
9:51 AM,33.1,19.0,56,30.36,10.0,North,16.1,-,N/A,,Overcast,10,2014-02-26 15:51:00
10:51 AM,34.0,18.0,52,30.36,10.0,NNW,15.0,-,N/A,,Overcast,340,2014-02-26 16:51:00
11:51 AM,35.1,17.1,48,30.31,10.0,North,13.8,20.7,N/A,,Overcast,10,2014-02-26 17:51:00
12:51 PM,36.0,17.1,46,30.27,10.0,NE,9.2,-,N/A,,Overcast,40,2014-02-26 18:51:00
1:51 PM,37.9,18.0,45,30.23,10.0,North,5.8,-,N/A,,Mostly Cloudy,350,2014-02-26 19:51:00
2:51 PM,41.0,18.0,40,30.19,10.0,Variable,3.5,-,N/A,,Clear,0,2014-02-26 20:51:00
3:51 PM,44.1,19.0,37,30.16,10.0,North,6.9,-,N/A,,Clear,10,2014-02-26 21:51:00
4:51 PM,44.1,19.0,37,30.14,10.0,ENE,3.5,-,N/A,,Partly Cloudy,60,2014-02-26 22:51:00
5:51 PM,45.0,19.9,37,30.13,10.0,Calm,Calm,-,N/A,,Clear,0,2014-02-26 23:51:00
6:51 PM,41.0,19.9,43,30.14,10.0,ESE,4.6,-,N/A,,Clear,120,2014-02-27 00:51:00
7:51 PM,37.0,19.0,48,30.16,10.0,ESE,6.9,-,N/A,,Clear,110,2014-02-27 01:51:00
8:51 PM,36.0,19.0,50,30.18,10.0,SE,5.8,-,N/A,,Clear,130,2014-02-27 02:51:00
9:51 PM,34.0,18.0,52,30.19,10.0,ESE,5.8,-,N/A,,Clear,110,2014-02-27 03:51:00
10:51 PM,32.0,19.0,59,30.19,10.0,SE,3.5,-,N/A,,Clear,140,2014-02-27 04:51:00
11:51 PM,27.0,17.1,66,30.19,10.0,South,5.8,-,N/A,,Clear,180,2014-02-27 05:51:00